MFX234 UZTT-UNOO

Flight info

Callsign MFX234
Flight time 2h 25m
Altitude 38000
Route DODUR1B DODUR Z578 ARSUL Z632 GENDI M168 TIMKA/K0800F390 P178 AMIGU M75 AMOLA/K0802F380 M75 POBUR/K0811F390 M75 DAKIN N990 ALODA ALODA5B
Aircraft A20N/M-SDE2E3FGHIRWXY/LB1

Departure

Time 2026-04-26 17:01
Airport Tashkent International Airport (UZTT)

Arrival

Time 2026-04-26 19:26
Airport Omsk Central Airport (UNOO)
Time Latitude Longitude Altitude Speed Heading
2026-04-26 16:31 41.26034 69.27007 1404 ft 0 kts 334°
2026-04-26 16:52 41.26034 69.27008 1403 ft 0 kts 334°
2026-04-26 16:57 41.26048 69.26998 1409 ft 5 kts 332°
2026-04-26 16:57 41.26062 69.26945 1403 ft 8 kts 266°
2026-04-26 16:57 41.26003 69.26750 1407 ft 15 kts 245°
2026-04-26 16:58 41.25959 69.26611 1404 ft 18 kts 246°
2026-04-26 16:58 41.25928 69.26515 1407 ft 17 kts 245°
2026-04-26 16:58 41.25744 69.26281 1409 ft 11 kts 242°
2026-04-26 16:59 41.25734 69.26249 1407 ft 0 kts 246°
2026-04-26 16:59 41.25712 69.26182 1409 ft 13 kts 246°
2026-04-26 17:00 41.25626 69.26142 1407 ft 0 kts 76°
2026-04-26 17:00 41.25643 69.26261 1406 ft 43 kts 81°
2026-04-26 17:00 41.25736 69.26949 1409 ft 105 kts 83°
2026-04-26 17:01 41.25851 69.28133 1411 ft 150 kts 82°
2026-04-26 17:01 41.25997 69.29605 1730 ft 161 kts 77°
2026-04-26 17:01 41.26140 69.31088 2321 ft 164 kts 80°
2026-04-26 17:01 41.26338 69.32601 2829 ft 173 kts 81°
2026-04-26 17:02 41.26565 69.34269 3155 ft 193 kts 81°
2026-04-26 17:02 41.26792 69.36118 3458 ft 210 kts 82°
2026-04-26 17:02 41.27010 69.38051 3763 ft 212 kts 83°
2026-04-26 17:02 41.27222 69.40048 4346 ft 219 kts 83°
2026-04-26 17:03 41.27429 69.42040 5262 ft 218 kts 83°
2026-04-26 17:03 41.27634 69.44019 6061 ft 220 kts 83°
2026-04-26 17:03 41.27844 69.46061 6833 ft 224 kts 83°
2026-04-26 17:03 41.28061 69.48153 7528 ft 232 kts 83°
2026-04-26 17:04 41.27994 69.52576 9343 ft 235 kts 119°
2026-04-26 17:04 41.26932 69.54201 10144 ft 236 kts 150°
2026-04-26 17:04 41.25394 69.54905 10942 ft 235 kts 174°
2026-04-26 17:05 41.23759 69.55190 11761 ft 238 kts 174°
2026-04-26 17:05 41.22108 69.55483 12594 ft 241 kts 175°
2026-04-26 17:05 41.20449 69.55325 13385 ft 240 kts 201°
2026-04-26 17:05 41.19045 69.54180 14132 ft 240 kts 229°
2026-04-26 17:06 41.18199 69.52284 14804 ft 242 kts 256°
2026-04-26 17:06 41.17928 69.50061 15393 ft 251 kts 263°
2026-04-26 17:06 41.17690 69.47651 15658 ft 275 kts 263°
2026-04-26 17:06 41.17419 69.45020 15893 ft 299 kts 262°
2026-04-26 17:07 41.17114 69.42171 16114 ft 323 kts 262°
2026-04-26 17:07 41.16777 69.39108 16311 ft 346 kts 262°
2026-04-26 17:07 41.16420 69.35902 16652 ft 361 kts 262°
2026-04-26 17:07 41.16048 69.32582 17379 ft 365 kts 262°
2026-04-26 17:08 41.15671 69.29228 18135 ft 369 kts 262°
2026-04-26 17:08 41.15290 69.25840 18805 ft 373 kts 262°
2026-04-26 17:08 41.14919 69.22422 19459 ft 375 kts 265°
2026-04-26 17:08 41.15011 69.18952 20112 ft 379 kts 280°
2026-04-26 17:09 41.15829 69.15620 20745 ft 383 kts 296°
2026-04-26 17:09 41.16752 69.13621 21157 ft 386 kts 306°
2026-04-26 17:09 41.19432 69.10404 21995 ft 395 kts 328°
2026-04-26 17:09 41.21977 69.08970 22604 ft 402 kts 343°
2026-04-26 17:10 41.24757 69.08363 23207 ft 407 kts 351°
2026-04-26 17:10 41.27584 69.07882 23792 ft 411 kts 351°
2026-04-26 17:10 41.30384 69.07336 24330 ft 411 kts 345°
2026-04-26 17:10 41.33105 69.06217 24886 ft 409 kts 335°
2026-04-26 17:11 41.35624 69.04460 25418 ft 408 kts 325°
2026-04-26 17:11 41.37901 69.02199 25941 ft 408 kts 320°
2026-04-26 17:11 41.40144 68.99869 26466 ft 410 kts 320°
2026-04-26 17:11 41.42405 68.97532 26973 ft 412 kts 320°
2026-04-26 17:12 41.46954 68.92830 27951 ft 415 kts 320°
2026-04-26 17:12 41.49238 68.90463 28416 ft 417 kts 320°
2026-04-26 17:13 41.53779 68.85751 29267 ft 420 kts 320°
2026-04-26 17:13 41.56150 68.83286 29697 ft 422 kts 320°
2026-04-26 17:13 41.61377 68.79622 30453 ft 434 kts 341°
2026-04-26 17:14 41.64375 68.78925 30736 ft 443 kts 353°
2026-04-26 17:14 41.70617 68.79338 31376 ft 451 kts
2026-04-26 17:14 41.73754 68.79631 31788 ft 451 kts 360°
2026-04-26 17:15 41.79984 68.80204 32597 ft 451 kts 360°
2026-04-26 17:15 41.83122 68.80493 33008 ft 451 kts 360°
2026-04-26 17:15 41.86261 68.80782 33419 ft 450 kts 360°
2026-04-26 17:16 41.89394 68.81070 33787 ft 450 kts 360°
2026-04-26 17:16 41.92477 68.81354 34156 ft 450 kts 360°
2026-04-26 17:16 41.95599 68.81643 34506 ft 449 kts 360°
2026-04-26 17:16 41.98716 68.81931 34832 ft 448 kts 359°
2026-04-26 17:17 42.01825 68.82123 35137 ft 447 kts 357°
2026-04-26 17:17 42.04933 68.82202 35447 ft 446 kts 356°
2026-04-26 17:17 42.08032 68.82260 35747 ft 445 kts 356°
2026-04-26 17:17 42.11129 68.82328 36036 ft 445 kts 356°
2026-04-26 17:18 42.14226 68.82411 36317 ft 445 kts 356°
2026-04-26 17:18 42.17327 68.82503 36587 ft 444 kts 356°
2026-04-26 17:18 42.20415 68.82600 36856 ft 444 kts 356°
2026-04-26 17:18 42.23500 68.82700 37124 ft 444 kts 356°
2026-04-26 17:19 42.29674 68.82899 37632 ft 443 kts 356°
2026-04-26 17:19 42.32762 68.82999 37884 ft 443 kts 356°
2026-04-26 17:19 42.35840 68.83098 38129 ft 443 kts 356°
2026-04-26 17:20 42.38882 68.83174 38349 ft 441 kts 354°
2026-04-26 17:20 42.39922 68.83131 38423 ft 440 kts 351°
2026-04-26 17:20 42.44901 68.82128 38774 ft 432 kts 341°
2026-04-26 17:20 42.47770 68.80941 38946 ft 428 kts 334°
2026-04-26 17:21 42.50536 68.79455 39093 ft 427 kts 333°
2026-04-26 17:21 42.53300 68.77973 39170 ft 428 kts 334°
2026-04-26 17:21 42.58836 68.75021 39176 ft 426 kts 333°
2026-04-26 17:22 42.64351 68.72060 39174 ft 427 kts 333°
2026-04-26 17:22 42.69884 68.69076 39173 ft 427 kts 333°
2026-04-26 17:23 42.75408 68.66091 39175 ft 427 kts 333°
2026-04-26 17:23 42.80905 68.63114 39177 ft 428 kts 333°
2026-04-26 17:24 42.86445 68.60131 39180 ft 428 kts 333°
2026-04-26 17:24 42.92005 68.57163 39182 ft 429 kts 333°
2026-04-26 17:25 42.97559 68.54189 39182 ft 429 kts 333°
2026-04-26 17:25 43.03113 68.51206 39184 ft 429 kts 333°
2026-04-26 17:26 43.08679 68.48210 39183 ft 429 kts 333°
2026-04-26 17:26 43.14235 68.45213 39187 ft 429 kts 333°
2026-04-26 17:27 43.19784 68.42213 39179 ft 429 kts 333°
2026-04-26 17:27 43.25362 68.39194 39194 ft 430 kts 333°
2026-04-26 17:28 43.30135 68.37158 39099 ft 435 kts 341°
2026-04-26 17:28 43.36197 68.35880 39181 ft 444 kts 349°
2026-04-26 17:29 43.41295 68.35197 39185 ft 442 kts 348°
2026-04-26 17:29 43.48472 68.34211 39185 ft 443 kts 348°
2026-04-26 17:30 43.54592 68.33386 39187 ft 444 kts 348°
2026-04-26 17:30 43.60751 68.32559 39194 ft 444 kts 348°
2026-04-26 17:31 43.66911 68.31731 39196 ft 444 kts 348°
2026-04-26 17:31 43.73061 68.30902 39202 ft 444 kts 348°
2026-04-26 17:32 43.79220 68.30070 39213 ft 445 kts 348°
2026-04-26 17:32 43.85384 68.29236 39214 ft 445 kts 348°
2026-04-26 17:33 43.91553 68.28400 39223 ft 445 kts 348°
2026-04-26 17:34 44.00755 68.27149 39226 ft 444 kts 348°
2026-04-26 17:34 44.06905 68.26311 39223 ft 444 kts 348°
2026-04-26 17:35 44.13087 68.25691 39222 ft 449 kts 354°
2026-04-26 17:35 44.19344 68.26929 39216 ft 461 kts
2026-04-26 17:36 44.25583 68.29058 39218 ft 461 kts
2026-04-26 17:36 44.31823 68.31183 39217 ft 462 kts
2026-04-26 17:37 44.38070 68.33306 39216 ft 462 kts
2026-04-26 17:37 44.44331 68.35438 39218 ft 463 kts
2026-04-26 17:38 44.53738 68.38650 39223 ft 465 kts
2026-04-26 17:38 44.59990 68.40790 39229 ft 465 kts
2026-04-26 17:39 44.66285 68.42950 39229 ft 466 kts
2026-04-26 17:39 44.72602 68.45123 39229 ft 467 kts
2026-04-26 17:40 44.77891 68.46947 39230 ft 467 kts
2026-04-26 17:40 44.85237 68.49488 39230 ft 468 kts
2026-04-26 17:41 44.91569 68.51683 39277 ft 468 kts
2026-04-26 17:41 44.97960 68.53901 39226 ft 474 kts
2026-04-26 17:42 45.04364 68.56133 39225 ft 473 kts
2026-04-26 17:42 45.10714 68.58350 39224 ft 473 kts
2026-04-26 17:43 45.17116 68.60589 39222 ft 474 kts
2026-04-26 17:43 45.23521 68.62835 39224 ft 474 kts
2026-04-26 17:44 45.29925 68.65086 39225 ft 474 kts
2026-04-26 17:44 45.36322 68.67339 39222 ft 474 kts
2026-04-26 17:45 45.42720 68.69598 39221 ft 474 kts
2026-04-26 17:45 45.49125 68.71865 39217 ft 474 kts
2026-04-26 17:46 45.55478 68.74119 39219 ft 474 kts
2026-04-26 17:46 45.61871 68.76391 39220 ft 474 kts
2026-04-26 17:47 45.67236 68.78302 39218 ft 474 kts
2026-04-26 17:47 45.74681 68.80961 39221 ft 474 kts
2026-04-26 17:48 45.81089 68.83256 39221 ft 475 kts
2026-04-26 17:48 45.87503 68.85557 39224 ft 475 kts
2026-04-26 17:49 45.93921 68.87867 39224 ft 476 kts
2026-04-26 17:49 46.00342 68.90183 39225 ft 476 kts
2026-04-26 17:50 46.06783 68.92511 39228 ft 476 kts
2026-04-26 17:50 46.13218 68.94843 39229 ft 477 kts
2026-04-26 17:51 46.19661 68.97184 39235 ft 477 kts
2026-04-26 17:51 46.26104 68.99530 39232 ft 477 kts
2026-04-26 17:52 46.32511 69.01868 39237 ft 477 kts
2026-04-26 17:52 46.38953 69.04226 39236 ft 478 kts
2026-04-26 17:53 46.45397 69.06589 39241 ft 478 kts
2026-04-26 17:54 46.55061 69.10145 39241 ft 477 kts
2026-04-26 17:54 46.61506 69.12524 39248 ft 478 kts
2026-04-26 17:55 46.67947 69.14907 39244 ft 477 kts
2026-04-26 17:55 46.74386 69.17295 39242 ft 477 kts
2026-04-26 17:56 46.80828 69.19691 39242 ft 477 kts
2026-04-26 17:57 46.93658 69.24479 39238 ft 477 kts
2026-04-26 17:57 47.00082 69.26885 39239 ft 476 kts
2026-04-26 17:58 47.12947 69.31722 39236 ft 477 kts
2026-04-26 17:59 47.22583 69.35361 39242 ft 477 kts
2026-04-26 17:59 47.28970 69.37780 39240 ft 477 kts
2026-04-26 18:00 47.35399 69.40222 39246 ft 477 kts
2026-04-26 18:00 47.41837 69.42673 39246 ft 477 kts
2026-04-26 18:01 47.48278 69.45131 39245 ft 478 kts
2026-04-26 18:01 47.54721 69.47597 39247 ft 478 kts
2026-04-26 18:02 47.59028 69.49248 39248 ft 478 kts
2026-04-26 18:02 47.67611 69.52548 39251 ft 479 kts
2026-04-26 18:03 47.74058 69.55034 39252 ft 479 kts
2026-04-26 18:03 47.80508 69.57527 39255 ft 479 kts
2026-04-26 18:04 47.86955 69.60026 39258 ft 479 kts 10°
2026-04-26 18:05 47.96628 69.63787 39253 ft 479 kts 10°
2026-04-26 18:05 48.03071 69.66300 39251 ft 478 kts 10°
2026-04-26 18:06 48.09507 69.68818 39251 ft 478 kts 10°
2026-04-26 18:06 48.15943 69.71341 39250 ft 478 kts 10°
2026-04-26 18:07 48.22371 69.73868 39248 ft 477 kts 10°
2026-04-26 18:07 48.28772 69.76391 39246 ft 477 kts 10°
2026-04-26 18:08 48.35191 69.78927 39248 ft 477 kts 10°
2026-04-26 18:08 48.41616 69.81473 39244 ft 477 kts 10°
2026-04-26 18:09 48.48039 69.84024 39242 ft 477 kts 10°
2026-04-26 18:09 48.54462 69.86582 39244 ft 477 kts 10°
2026-04-26 18:10 48.60885 69.89147 39251 ft 477 kts 10°
2026-04-26 18:10 48.67321 69.91724 39250 ft 478 kts 10°
2026-04-26 18:11 48.73706 69.94288 39252 ft 478 kts 10°
2026-04-26 18:11 48.80140 69.96877 39249 ft 478 kts 10°
2026-04-26 18:12 48.85524 69.99049 39254 ft 478 kts 10°
2026-04-26 18:12 48.91932 70.01640 39255 ft 479 kts 10°
2026-04-26 18:13 48.98372 70.04252 39254 ft 479 kts 10°
2026-04-26 18:13 49.04817 70.06873 39245 ft 479 kts 10°
2026-04-26 18:14 49.11266 70.09502 39248 ft 479 kts 10°
2026-04-26 18:14 49.17709 70.12137 39245 ft 479 kts 10°
2026-04-26 18:15 49.24119 70.14764 39247 ft 480 kts 11°
2026-04-26 18:15 49.30567 70.17414 39242 ft 480 kts 11°
2026-04-26 18:16 49.37021 70.20074 39244 ft 480 kts 11°
2026-04-26 18:16 49.46702 70.24078 39241 ft 480 kts 11°
2026-04-26 18:17 49.53149 70.26752 39242 ft 480 kts 11°
2026-04-26 18:17 49.59608 70.29440 39231 ft 480 kts 11°
2026-04-26 18:18 49.66064 70.32134 39228 ft 480 kts 11°
2026-04-26 18:18 49.72513 70.34832 39225 ft 480 kts 11°
2026-04-26 18:19 49.78956 70.37535 39222 ft 480 kts 11°
2026-04-26 18:19 49.85404 70.40248 39218 ft 480 kts 11°
2026-04-26 18:20 49.91812 70.42952 39215 ft 480 kts 11°
2026-04-26 18:20 49.97175 70.45220 39210 ft 480 kts 11°
2026-04-26 18:21 50.04728 70.48423 39203 ft 480 kts 11°
2026-04-26 18:21 50.11182 70.51169 39207 ft 480 kts 11°
2026-04-26 18:22 50.17636 70.53922 39201 ft 481 kts 11°
2026-04-26 18:22 50.24051 70.56666 39196 ft 481 kts 11°
2026-04-26 18:23 50.30511 70.59437 39194 ft 481 kts 11°
2026-04-26 18:23 50.36975 70.62218 39187 ft 481 kts 11°
2026-04-26 18:24 50.43436 70.65005 39186 ft 482 kts 11°
2026-04-26 18:24 50.49907 70.67805 39188 ft 482 kts 11°
2026-04-26 18:25 50.56387 70.70616 39183 ft 482 kts 11°
2026-04-26 18:25 50.62866 70.73435 39185 ft 483 kts 11°
2026-04-26 18:26 50.69345 70.76262 39179 ft 483 kts 11°
2026-04-26 18:26 50.75829 70.79100 39176 ft 484 kts 11°
2026-04-26 18:27 50.82280 70.81931 39176 ft 484 kts 11°
2026-04-26 18:27 50.88774 70.84789 39173 ft 484 kts 12°
2026-04-26 18:28 50.95269 70.87656 39166 ft 484 kts 12°
2026-04-26 18:28 51.01776 70.90537 39164 ft 484 kts 12°
2026-04-26 18:29 51.08271 70.93421 39156 ft 485 kts 12°
2026-04-26 18:29 51.14741 70.96302 39156 ft 485 kts 12°
2026-04-26 18:30 51.21236 70.99203 39150 ft 485 kts 12°
2026-04-26 18:30 51.27732 71.02112 39145 ft 485 kts 12°
2026-04-26 18:31 51.34229 71.05031 39147 ft 485 kts 12°
2026-04-26 18:31 51.40781 71.07980 39140 ft 494 kts 12°
2026-04-26 18:32 51.47459 71.10995 39142 ft 502 kts 12°
2026-04-26 18:32 51.54225 71.14063 39137 ft 508 kts 12°
2026-04-26 18:33 51.61044 71.17167 39137 ft 509 kts 12°
2026-04-26 18:33 51.67857 71.20276 39132 ft 509 kts 12°
2026-04-26 18:34 51.74670 71.23394 39128 ft 508 kts 12°
2026-04-26 18:34 51.81473 71.26516 39125 ft 508 kts 12°
2026-04-26 18:35 51.88279 71.29649 39126 ft 508 kts 12°
2026-04-26 18:35 51.95041 71.32773 39120 ft 508 kts 12°
2026-04-26 18:36 52.01834 71.35920 39115 ft 508 kts 12°
2026-04-26 18:36 52.08637 71.39082 39113 ft 508 kts 12°
2026-04-26 18:37 52.15433 71.42251 39109 ft 508 kts 12°
2026-04-26 18:37 52.22224 71.45427 39109 ft 508 kts 12°
2026-04-26 18:38 52.29025 71.48619 39109 ft 508 kts 12°
2026-04-26 18:38 52.35810 71.51814 39099 ft 505 kts 12°
2026-04-26 18:39 52.39142 71.53391 39102 ft 490 kts 12°
2026-04-26 18:39 52.42374 71.54924 39104 ft 478 kts 12°
2026-04-26 18:39 52.48796 71.57959 39101 ft 484 kts 12°
2026-04-26 18:40 52.55237 71.61014 39096 ft 485 kts 12°
2026-04-26 18:40 52.61724 71.64107 39095 ft 484 kts 12°
2026-04-26 18:41 52.68189 71.67198 39092 ft 484 kts 12°
2026-04-26 18:41 52.74662 71.70302 39089 ft 484 kts 13°
2026-04-26 18:42 52.81125 71.73411 39087 ft 484 kts 13°
2026-04-26 18:42 52.87590 71.76531 39082 ft 484 kts 13°
2026-04-26 18:43 52.94058 71.79661 39079 ft 484 kts 13°
2026-04-26 18:43 53.00477 71.82778 39079 ft 484 kts 13°
2026-04-26 18:44 53.06946 71.85929 39072 ft 484 kts 13°
2026-04-26 18:44 53.13416 71.89090 39070 ft 484 kts 13°
2026-04-26 18:45 53.19881 71.92258 39068 ft 484 kts 13°
2026-04-26 18:45 53.26346 71.95437 39064 ft 484 kts 13°
2026-04-26 18:46 53.32763 71.98602 39062 ft 484 kts 13°
2026-04-26 18:46 53.39199 72.01786 39059 ft 484 kts 13°
2026-04-26 18:47 53.45658 72.04992 39056 ft 484 kts 13°
2026-04-26 18:47 53.52111 72.08205 39051 ft 484 kts 13°
2026-04-26 18:48 53.58576 72.11434 39051 ft 484 kts 13°
2026-04-26 18:48 53.65034 72.14670 39043 ft 484 kts 13°
2026-04-26 18:49 53.71490 72.17915 38991 ft 482 kts 13°
2026-04-26 18:49 53.74694 72.19529 38669 ft 480 kts 13°
2026-04-26 18:49 53.77885 72.21138 37996 ft 477 kts 13°
2026-04-26 18:50 53.81065 72.22744 37015 ft 477 kts 13°
2026-04-26 18:50 53.84252 72.24355 35977 ft 478 kts 13°
2026-04-26 18:50 53.87443 72.25969 34975 ft 480 kts 13°
2026-04-26 18:50 53.90649 72.27596 33968 ft 481 kts 12°
2026-04-26 18:51 53.93822 72.29209 32858 ft 482 kts 12°
2026-04-26 18:51 53.97045 72.30849 31978 ft 484 kts 12°
2026-04-26 18:51 54.00278 72.32498 31210 ft 484 kts 12°
2026-04-26 18:51 54.03493 72.34141 30671 ft 482 kts 12°
2026-04-26 18:52 54.06713 72.35788 30420 ft 485 kts 12°
2026-04-26 18:52 54.08855 72.36883 30363 ft 486 kts 12°
2026-04-26 18:52 54.13164 72.39168 30115 ft 483 kts 15°
2026-04-26 18:52 54.16280 72.41423 30013 ft 488 kts 22°
2026-04-26 18:53 54.19215 72.44208 29824 ft 490 kts 29°
2026-04-26 18:53 54.22079 72.47382 29168 ft 490 kts 29°
2026-04-26 18:53 54.24956 72.50534 28220 ft 492 kts 29°
2026-04-26 18:53 54.27853 72.53698 27146 ft 496 kts 29°
2026-04-26 18:54 54.30748 72.56871 26289 ft 491 kts 28°
2026-04-26 18:54 54.33596 72.60009 25258 ft 484 kts 28°
2026-04-26 18:54 54.36411 72.63119 24286 ft 477 kts 28°
2026-04-26 18:54 54.38252 72.65157 23648 ft 473 kts 28°
2026-04-26 18:55 54.41918 72.69218 22230 ft 463 kts 28°
2026-04-26 18:55 54.44566 72.72158 21267 ft 455 kts 28°
2026-04-26 18:55 54.46320 72.74251 20597 ft 452 kts 34°
2026-04-26 18:55 54.49198 72.79374 19340 ft 450 kts 53°
2026-04-26 18:56 54.50255 72.82432 18740 ft 447 kts 64°
2026-04-26 18:56 54.51225 72.87481 17770 ft 441 kts 81°
2026-04-26 18:56 54.51375 72.92680 16750 ft 431 kts 98°
2026-04-26 18:56 54.50702 72.97620 15765 ft 419 kts 115°
2026-04-26 18:57 54.49275 73.01865 14818 ft 404 kts 134°
2026-04-26 18:57 54.47983 73.04105 14193 ft 394 kts 146°
2026-04-26 18:57 54.44819 73.06816 12856 ft 372 kts 172°
2026-04-26 18:57 54.42299 73.07047 11856 ft 356 kts 193°
2026-04-26 18:58 54.40003 73.05773 10873 ft 342 kts 211°
2026-04-26 18:58 54.37931 73.03807 9913 ft 336 kts 219°
2026-04-26 18:58 54.36316 73.01039 8888 ft 326 kts 239°
2026-04-26 18:58 54.35431 72.97581 7907 ft 318 kts 259°
2026-04-26 18:59 54.35343 72.93898 7325 ft 302 kts 279°
2026-04-26 18:59 54.35938 72.90599 7096 ft 280 kts 296°
2026-04-26 18:59 54.37016 72.87980 6999 ft 257 kts 312°
2026-04-26 18:59 54.38404 72.86130 7003 ft 256 kts 327°
2026-04-26 19:00 54.40076 72.85007 6993 ft 261 kts 343°
2026-04-26 19:00 54.41891 72.84776 6870 ft 265 kts 360°
2026-04-26 19:00 54.43723 72.85322 6825 ft 270 kts
2026-04-26 19:00 54.45579 72.85915 6842 ft 271 kts
2026-04-26 19:01 54.47447 72.86489 6999 ft 272 kts
2026-04-26 19:01 54.49297 72.87054 7025 ft 270 kts
2026-04-26 19:01 54.51122 72.87609 7026 ft 270 kts
2026-04-26 19:01 54.52972 72.88171 7026 ft 270 kts
2026-04-26 19:02 54.54818 72.88788 7020 ft 273 kts 12°
2026-04-26 19:02 54.56502 72.90377 7022 ft 281 kts 31°
2026-04-26 19:02 54.58072 72.92418 6939 ft 283 kts 33°
2026-04-26 19:02 54.59118 72.93820 6852 ft 282 kts 33°
2026-04-26 19:03 54.61162 72.96567 6686 ft 281 kts 33°
2026-04-26 19:03 54.62708 72.98628 6566 ft 281 kts 33°
2026-04-26 19:03 54.64244 73.00663 6432 ft 279 kts 33°
2026-04-26 19:03 54.65791 73.02706 6308 ft 279 kts 33°
2026-04-26 19:04 54.67335 73.04742 6171 ft 279 kts 33°
2026-04-26 19:04 54.68872 73.06770 6036 ft 278 kts 33°
2026-04-26 19:04 54.70409 73.08801 5906 ft 278 kts 33°
2026-04-26 19:04 54.71947 73.10836 5668 ft 279 kts 33°
2026-04-26 19:05 54.75005 73.14889 4923 ft 277 kts 33°
2026-04-26 19:05 54.76527 73.16911 4550 ft 274 kts 33°
2026-04-26 19:05 54.78037 73.18920 4178 ft 272 kts 33°
2026-04-26 19:06 54.79534 73.20914 3805 ft 270 kts 33°
2026-04-26 19:06 54.81017 73.22892 3441 ft 268 kts 32°
2026-04-26 19:06 54.82495 73.24863 3065 ft 267 kts 32°
2026-04-26 19:06 54.83961 73.26821 2706 ft 264 kts 32°
2026-04-26 19:07 54.85409 73.28756 2458 ft 263 kts 32°
2026-04-26 19:07 54.86859 73.30690 2404 ft 264 kts 32°
2026-04-26 19:07 54.88275 73.32594 2401 ft 250 kts 32°
2026-04-26 19:07 54.89608 73.34390 2395 ft 236 kts 32°
2026-04-26 19:08 54.90868 73.36087 2393 ft 223 kts 31°
2026-04-26 19:08 54.92058 73.37690 2402 ft 209 kts 31°
2026-04-26 19:08 54.93172 73.39192 2389 ft 196 kts 30°
2026-04-26 19:08 54.94237 73.40617 2411 ft 193 kts 30°
2026-04-26 19:09 54.95244 73.41969 2393 ft 176 kts 30°
2026-04-26 19:09 54.96182 73.43120 2383 ft 151 kts 10°
2026-04-26 19:09 54.97101 73.43166 2424 ft 132 kts 331°
2026-04-26 19:09 54.97817 73.42183 2434 ft 133 kts 297°
2026-04-26 19:10 54.97997 73.40667 2393 ft 128 kts 264°
2026-04-26 19:10 54.97903 73.39186 2179 ft 121 kts 287°
2026-04-26 19:10 54.98475 73.38181 1909 ft 131 kts 335°
2026-04-26 19:10 54.99393 73.38363 1768 ft 133 kts
2026-04-26 19:11 55.00223 73.39045 1540 ft 142 kts 34°
2026-04-26 19:11 55.00717 73.40572 1384 ft 153 kts 59°
2026-04-26 19:11 55.01194 73.42325 1490 ft 156 kts 59°
2026-04-26 19:11 55.01518 73.44035 1493 ft 151 kts 91°
2026-04-26 19:12 55.01086 73.45631 1496 ft 145 kts 148°
2026-04-26 19:12 55.00189 73.46146 1499 ft 132 kts 192°
2026-04-26 19:12 54.99384 73.45683 1505 ft 118 kts 225°
2026-04-26 19:12 54.98884 73.44633 1500 ft 111 kts 252°
2026-04-26 19:13 54.98637 73.43376 1500 ft 109 kts 256°
2026-04-26 19:13 54.98377 73.42129 1500 ft 109 kts 255°
2026-04-26 19:13 54.98119 73.40904 1395 ft 106 kts 257°
2026-04-26 19:13 54.97872 73.39648 1173 ft 115 kts 257°
2026-04-26 19:14 54.97689 73.38272 932 ft 117 kts 260°
2026-04-26 19:14 54.97507 73.36922 753 ft 116 kts 256°
2026-04-26 19:14 54.97321 73.35524 612 ft 119 kts 257°
2026-04-26 19:14 54.97198 73.34590 512 ft 120 kts 255°
2026-04-26 19:15 54.96937 73.32708 332 ft 121 kts 256°
2026-04-26 19:15 54.96762 73.31365 393 ft 114 kts 257°
2026-04-26 19:15 54.96597 73.29842 891 ft 140 kts 260°
2026-04-26 19:15 54.96413 73.28042 1496 ft 162 kts 261°
2026-04-26 19:16 54.96143 73.26093 1999 ft 174 kts 260°
2026-04-26 19:16 54.96003 73.23977 2489 ft 179 kts 281°
2026-04-26 19:16 54.96603 73.22079 2635 ft 185 kts 313°
2026-04-26 19:16 54.97785 73.21200 2402 ft 194 kts 351°
2026-04-26 19:17 54.99128 73.21885 2409 ft 213 kts 28°
2026-04-26 19:17 55.00061 73.23929 2407 ft 225 kts 64°
2026-04-26 19:17 55.00198 73.26648 2396 ft 231 kts 101°
2026-04-26 19:17 54.99613 73.29212 2404 ft 231 kts 117°
2026-04-26 19:18 54.98947 73.31755 2404 ft 231 kts 112°
2026-04-26 19:18 54.98473 73.34390 2396 ft 218 kts 103°
2026-04-26 19:18 54.98211 73.36852 2392 ft 197 kts 97°
2026-04-26 19:18 54.98065 73.39117 2394 ft 180 kts 91°
2026-04-26 19:19 54.98333 73.41046 2396 ft 151 kts 43°
2026-04-26 19:19 54.99140 73.42249 2407 ft 154 kts 28°
2026-04-26 19:19 54.99959 73.43363 2397 ft 151 kts 28°
2026-04-26 19:19 55.00786 73.44499 2402 ft 151 kts 29°
2026-04-26 19:20 55.01607 73.45643 2397 ft 152 kts 30°
2026-04-26 19:20 55.02162 73.46425 2402 ft 152 kts 30°
2026-04-26 19:20 55.03249 73.47965 2404 ft 152 kts 30°
2026-04-26 19:20 55.03950 73.49336 2406 ft 153 kts 62°
2026-04-26 19:21 55.03923 73.51170 2401 ft 157 kts 117°
2026-04-26 19:21 55.03168 73.52407 2408 ft 147 kts 161°
2026-04-26 19:21 55.02257 73.53247 2401 ft 148 kts 160°
2026-04-26 19:21 55.01313 73.53724 2360 ft 135 kts 190°
2026-04-26 19:22 55.00441 73.53399 2298 ft 124 kts 218°
2026-04-26 19:22 54.99797 73.52543 2304 ft 115 kts 239°
2026-04-26 19:22 54.99438 73.51371 2301 ft 108 kts 259°
2026-04-26 19:22 54.99253 73.50120 2303 ft 107 kts 264°
2026-04-26 19:23 54.99091 73.48851 2207 ft 107 kts 263°
2026-04-26 19:23 54.98924 73.47603 2061 ft 105 kts 263°
2026-04-26 19:23 54.98760 73.46371 1925 ft 104 kts 263°
2026-04-26 19:23 54.98598 73.45147 1788 ft 104 kts 262°
2026-04-26 19:24 54.98432 73.43908 1642 ft 106 kts 262°
2026-04-26 19:24 54.98265 73.42647 1492 ft 108 kts 262°
2026-04-26 19:24 54.97916 73.40048 1173 ft 114 kts 260°
2026-04-26 19:25 54.97733 73.38675 1000 ft 117 kts 258°
2026-04-26 19:25 54.97613 73.37758 876 ft 117 kts 258°
2026-04-26 19:25 54.97364 73.35898 635 ft 118 kts 256°
2026-04-26 19:25 54.97191 73.34517 499 ft 118 kts 255°
2026-04-26 19:26 54.96994 73.33110 377 ft 120 kts 256°
2026-04-26 19:26 54.96804 73.31737 310 ft 104 kts 256°
2026-04-26 19:26 54.96705 73.30980 310 ft 44 kts 257°
2026-04-26 19:26 54.96637 73.30492 314 ft 41 kts 256°
2026-04-26 19:27 54.96579 73.30072 316 ft 16 kts 232°
2026-04-26 19:27 54.96482 73.30076 316 ft 16 kts 167°
2026-04-26 19:27 54.96443 73.30092 316 ft 2 kts 167°
2026-04-26 19:27 54.96434 73.30096 316 ft 3 kts 167°
2026-04-26 19:28 54.96397 73.30110 316 ft 8 kts 167°
2026-04-26 19:28 54.96332 73.30137 316 ft 12 kts 167°
2026-04-26 19:28 54.96240 73.30174 316 ft 15 kts 167°
2026-04-26 19:28 54.96131 73.30241 316 ft 18 kts 151°
2026-04-26 19:29 54.96069 73.30340 316 ft 9 kts 147°
2026-04-26 19:29 54.96003 73.30417 316 ft 16 kts 143°
2026-04-26 19:29 54.95896 73.30570 314 ft 23 kts 142°
2026-04-26 19:29 54.95762 73.30751 314 ft 26 kts 140°
2026-04-26 19:30 54.95671 73.30941 314 ft 17 kts 98°
2026-04-26 19:30 54.95728 73.31120 313 ft 19 kts 43°
2026-04-26 19:30 54.95823 73.31290 312 ft 21 kts 45°
2026-04-26 19:30 54.95897 73.31422 312 ft 24 kts 45°
2026-04-26 19:31 54.96025 73.31650 311 ft 0 kts 46°
2026-04-26 19:31 54.96038 73.31675 311 ft 6 kts 46°
2026-04-26 19:31 54.96078 73.31748 310 ft 11 kts 46°
2026-04-26 19:31 54.96143 73.31864 310 ft 16 kts 46°
2026-04-26 19:32 54.96217 73.31878 309 ft 11 kts 320°
2026-04-26 19:32 54.96279 73.31795 310 ft 10 kts 353°
2026-04-26 19:32 54.96305 73.31864 309 ft 0 kts 96°
2026-04-26 19:32 54.96303 73.31865 311 ft 0 kts 120°
2026-04-26 19:33 54.96295 73.31875 311 ft 4 kts 138°
2026-04-26 19:33 54.96279 73.31900 308 ft 5 kts 139°
2026-04-26 19:33 54.96271 73.31912 309 ft 0 kts 136°